GW2708 Weather Reports


time (UTC)temp
C
wind
direction
speed
KPH
gust
KPH
rain 1hr
cm
rain 24hr
cm
rain mn
cm
humidity
%
barometer
mb
20260502152018 7 311 4.8 17.7 0.00 0.00 0.00 42 1013.0
20260502151538 7 20 8.0 17.7 0.00 0.00 0.00 49 1013.0
20260502151018 7 1 4.8 16.1 0.00 0.00 0.00 48 1013.1
20260502150521 6 238 4.8 16.1 0.00 0.00 0.00 48 1013.0
20260502130519 4 15 4.8 12.9 0.00 0.00 0.00 66 1013.7
20260502123519 2 240 3.2 11.3 0.00 0.00 0.00 70 1013.9
20260502123107 2 239 3.2 11.3 0.00 0.00 0.00 71 1013.8
20260502122520 3 218 4.8 9.7 0.00 0.00 0.00 71 1013.7
20260502122027 2 266 3.2 11.3 0.00 0.00 0.00 75 1013.8
20260502121535 2 287 4.8 12.9 0.00 0.00 0.00 74 1013.7
20260502121018 2 254 4.8 12.9 0.00 0.00 0.00 75 1013.8
20260502120519 2 300 4.8 11.3 0.00 0.00 0.00 76 1013.7
20260502115522 2 307 3.2 8.0 0.00 0.00 0.00 76 1013.7
20260502115019 2 229 1.6 9.7 0.00 0.00 0.00 77 1013.7
20260502114537 2 280 4.8 9.7 0.00 0.00 0.00 76 1013.8
20260502114018 1 302 3.2 9.7 0.00 0.00 0.00 77 1013.7
20260502113518 1 231 1.6 11.3 0.00 0.00 0.00 77 1013.7
20260502113036 1 86 3.2 11.3 0.00 0.00 0.00 77 1013.5
20260502112517 1 240 3.2 9.7 0.00 0.00 0.00 77 1013.6
20260502112019 1 255 3.2 8.0 0.00 0.00 0.00 78 1013.5
20260502111535 1 325 4.8 8.0 0.00 0.00 0.00 77 1013.5
20260502111017 1 276 4.8 8.0 0.00 0.00 0.00 77 1013.6
20260502110521 1 273 3.2 8.0 0.00 0.00 0.00 78 1013.7
20260502110045 1 304 3.2 9.7 0.00 0.00 0.00 77 1013.7
20260502105518 1 323 4.8 9.7 0.00 0.00 0.00 78 1013.6
20260502105018 1 238 4.8 9.7 0.00 0.00 0.00 78 1013.6
20260502104537 1 331 3.2 8.0 0.00 0.00 0.00 77 1013.5
20260502104018 1 298 3.2 8.0 0.00 0.00 0.00 77 1013.5
20260502103518 1 277 3.2 9.7 0.00 0.00 0.00 77 1013.5
20260502103035 1 297 3.2 9.7 0.00 0.00 0.00 77 1013.5
20260502102518 1 185 3.2 9.7 0.00 0.00 0.00 77 1013.5
20260502102026 1 226 4.8 9.7 0.00 0.00 0.00 77 1013.4
20260502101535 1 256 4.8 9.7 0.00 0.00 0.00 77 1013.5
20260502101020 1 277 3.2 11.3 0.00 0.00 0.00 77 1013.4
20260502100517 1 314 3.2 11.3 0.00 0.00 0.00 77 1013.4
20260502091020 1 231 1.6 4.8 0.00 0.00 0.00 79 1013.5
20260502090518 1 310 1.6 4.8 0.00 0.00 0.00 80 1013.4
20260502071021 1 250 1.6 6.4 0.00 0.00 0.00 76 1013.2
20260502070521 1 318 3.2 6.4 0.00 0.00 0.00 76 1013.2
20260502070035 1 288 1.6 6.4 0.00 0.00 0.00 76 1013.2
20260502065518 1 33 1.6 6.4 0.00 0.00 0.00 77 1013.1
20260502065020 1 111 1.6 6.4 0.00 0.00 0.00 77 1013.2
20260502064538 1 95 1.6 4.8 0.00 0.00 0.00 77 1013.2
20260502064020 1 15 1.6 3.2 0.00 0.00 0.00 76 1013.1
20260502063518 1 42 0.0 6.4 0.00 0.00 0.00 76 1013.2
20260502063049 1 8 0.0 6.4 0.00 0.00 0.00 76 1013.2
20260502062520 1 7 1.6 6.4 0.00 0.00 0.00 75 1013.3
20260502062018 2 9 1.6 4.8 0.00 0.00 0.00 74 1013.3
20260502061537 2 3 1.6 8.0 0.00 0.00 0.00 74 1013.3
20260502061019 2 80 1.6 11.3 0.00 0.00 0.00 73 1013.4
20260502060518 2 215 3.2 11.3 0.00 0.00 0.00 74 1013.3
20260502060037 2 30 4.8 11.3 0.00 0.00 0.00 73 1013.3
20260502055518 2 16 1.6 6.4 0.00 0.00 0.00 73 1013.2
20260502055020 2 97 1.6 8.0 0.00 0.00 0.00 74 1013.2
20260502054538 2 62 3.2 8.0 0.00 0.00 0.00 73 1013.2
20260502054018 2 12 1.6 6.4 0.00 0.00 0.00 73 1013.1
20260502053520 2 259 1.6 6.4 0.00 0.00 0.00 73 1013.2
20260502053039 2 41 1.6 8.0 0.00 0.00 0.00 73 1013.2
20260502052520 2 44 3.2 8.0 0.00 0.00 0.00 73 1013.2
20260502052019 2 274 1.6 6.4 0.00 0.00 0.00 73 1013.1
20260502051537 2 33 1.6 8.0 0.00 0.00 0.00 72 1013.2
20260502051017 2 295 3.2 8.0 0.00 0.00 0.00 72 1013.2
20260502050518 2 37 1.6 8.0 0.00 0.00 0.00 72 1013.2
20260502050038 2 221 3.2 9.7 0.00 0.00 0.00 71 1013.2
20260502045520 2 136 3.2 11.3 0.00 0.00 0.00 71 1013.2
20260502045018 2 247 3.2 11.3 0.00 0.00 0.00 71 1013.2
20260502044534 2 307 3.2 9.7 0.00 0.00 0.00 71 1013.1
20260502044018 2 220 3.2 9.7 0.00 0.00 0.00 71 1013.1
20260502043519 2 1 3.2 9.7 0.00 0.00 0.00 71 1013.1
20260502043034 2 297 3.2 9.7 0.00 0.00 0.00 70 1013.1
20260502042519 2 22 3.2 11.3 0.00 0.00 0.00 71 1013.1
20260502042019 2 68 4.8 11.3 0.00 0.00 0.00 70 1013.1
20260502041538 2 45 3.2 11.3 0.00 0.00 0.00 70 1013.1
20260502041020 2 169 4.8 16.1 0.00 0.00 0.00 70 1013.0
20260502040521 2 13 3.2 16.1 0.00 0.00 0.00 69 1013.0
20260502040036 2 143 4.8 16.1 0.00 0.00 0.00 69 1013.0
20260502035520 2 8 3.2 14.5 0.00 0.00 0.00 69 1013.0
20260502035021 2 53 4.8 12.9 0.00 0.00 0.00 70 1013.0
20260502034536 2 241 4.8 12.9 0.00 0.00 0.00 69 1013.0
20260502034020 2 342 4.8 12.9 0.00 0.00 0.00 70 1012.9
20260502033519 2 231 4.8 11.3 0.00 0.00 0.00 70 1013.0
20260502033042 2 53 4.8 12.9 0.00 0.00 0.00 70 1012.9
20260502032517 2 318 4.8 12.9 0.00 0.00 0.00 70 1012.9
20260502032020 2 159 6.4 12.9 0.00 0.00 0.00 70 1012.9
20260502031534 2 37 3.2 9.7 0.00 0.00 0.00 71 1012.9
20260502031020 2 56 3.2 9.7 0.00 0.00 0.00 71 1012.9
20260502030517 2 26 3.2 12.9 0.00 0.00 0.00 71 1013.1
20260502030048 2 349 3.2 12.9 0.00 0.00 0.00 70 1012.9
20260502025518 2 290 3.2 9.7 0.00 0.00 0.00 71 1013.0
20260502025017 2 246 3.2 9.7 0.00 0.00 0.00 71 1013.0
20260502024541 2 305 4.8 12.9 0.00 0.00 0.00 71 1012.9
20260502024018 2 243 3.2 12.9 0.00 0.00 0.00 71 1013.1
20260502023518 2 210 4.8 12.9 0.00 0.00 0.00 72 1013.0
20260502023036 2 295 4.8 11.3 0.00 0.00 0.00 72 1013.0
20260502022517 2 262 3.2 9.7 0.00 0.00 0.00 72 1013.0
20260502022017 2 295 3.2 11.3 0.00 0.00 0.00 72 1013.1
20260502021535 2 310 3.2 11.3 0.00 0.00 0.00 72 1013.1
20260502021019 2 30 3.2 11.3 0.00 0.00 0.00 72 1013.2
20260502020520 2 269 4.8 11.3 0.00 0.00 0.00 72 1013.2
20260502020035 2 296 3.2 9.7 0.00 0.00 0.00 72 1013.1
20260502015520 2 305 4.8 9.7 0.00 0.00 0.00 72 1013.1
20260502015017 2 314 3.2 9.7 0.00 0.00 0.00 72 1013.2
20260502014538 2 299 3.2 11.3 0.00 0.00 0.00 73 1013.2
20260502014019 2 288 4.8 11.3 0.00 0.00 0.00 72 1013.1
20260502013521 2 183 3.2 12.9 0.00 0.00 0.00 73 1013.1
20260502013037 2 265 4.8 12.9 0.00 0.00 0.00 72 1013.0
20260502012520 2 310 4.8 9.7 0.00 0.00 0.00 72 1013.0
20260502012022 2 289 3.2 9.7 0.00 0.00 0.00 72 1012.9
20260502011535 2 269 4.8 9.7 0.00 0.00 0.00 71 1013.0
20260502011020 2 281 4.8 9.7 0.00 0.00 0.00 70 1012.9
20260502010519 2 266 3.2 12.9 0.00 0.00 0.00 70 1013.0
20260502010047 2 234 6.4 12.9 0.00 0.00 0.00 70 1012.8
20260502005520 2 269 4.8 11.3 0.00 0.00 0.00 70 1012.8
20260502005019 2 345 6.4 12.9 0.00 0.00 0.00 70 1012.7
20260502004552 2 290 4.8 12.9 0.00 0.00 0.00 70 1012.7
20260502004017 2 254 4.8 11.3 0.00 0.00 0.00 71 1012.7
20260502003519 2 276 3.2 9.7 0.00 0.00 0.00 71 1012.7
20260502003036 2 301 3.2 9.7 0.00 0.00 0.00 70 1012.6
20260502002519 2 264 3.2 9.7 0.00 0.00 0.00 70 1012.6
20260502002019 2 303 3.2 8.0 0.00 0.00 0.00 70 1012.5
20260502001537 2 273 1.6 8.0 0.00 0.00 0.00 69 1012.5
20260502001018 2 230 3.2 9.7 0.00 0.00 0.00 68 1012.5
20260502000519 2 349 3.2 9.7 0.00 0.00 0.00 70 1012.4
20260502000034 2 278 3.2 11.3 0.00 0.00 0.00 69 1012.4
20260501235530 2 264 3.2 11.3 0.00 0.00 0.00 69 1012.3
20260501235019 2 315 3.2 11.3 0.00 0.00 0.00 68 1012.3
20260501234538 2 225 4.8 9.7 0.00 0.00 0.00 68 1012.3
20260501234022 3 179 3.2 9.7 0.00 0.00 0.00 70 1012.4
20260501233518 3 307 4.8 9.7 0.00 0.00 0.00 69 1012.3
20260501233034 2 297 4.8 14.5 0.00 0.00 0.00 69 1012.4
20260501232520 2 300 4.8 14.5 0.00 0.00 0.00 69 1012.2
20260501232019 3 264 6.4 16.1 0.00 0.00 0.00 69 1012.3
20260501231534 3 299 4.8 16.1 0.00 0.00 0.00 70 1012.3
20260501231019 3 297 4.8 11.3 0.00 0.00 0.00 70 1012.2
20260501230520 2 342 4.8 11.3 0.00 0.00 0.00 71 1012.3
20260501230036 2 270 6.4 14.5 0.00 0.00 0.00 72 1012.2
20260501225520 2 233 4.8 14.5 0.00 0.00 0.00 72 1012.3
20260501225019 2 262 4.8 14.5 0.00 0.00 0.00 72 1012.4
20260501224535 2 330 4.8 16.1 0.00 0.00 0.00 72 1012.2
20260501224019 2 257 6.4 16.1 0.00 0.00 0.00 71 1012.3
20260501223522 2 285 6.4 12.9 0.00 0.00 0.00 72 1012.4
20260501223037 2 283 4.8 14.5 0.00 0.00 0.00 72 1012.4
20260501222518 2 326 6.4 16.1 0.00 0.00 0.00 72 1012.4
20260501222019 2 254 4.8 16.1 0.00 0.00 0.00 73 1012.3
20260501221536 2 313 6.4 16.1 0.00 0.00 0.00 73 1012.2
20260501221017 2 349 4.8 16.1 0.00 0.00 0.00 74 1012.3
20260501220522 2 324 6.4 16.1 0.00 0.00 0.00 74 1012.2
20260501220038 2 1 8.0 14.5 0.00 0.00 0.00 74 1012.2
20260501215520 2 319 3.2 16.1 0.00 0.00 0.00 74 1012.2
20260501215020 3 42 6.4 16.1 0.00 0.00 0.00 73 1012.2
20260501214535 3 271 8.0 19.3 0.00 0.00 0.00 74 1012.1
20260501214020 3 281 8.0 19.3 0.00 0.00 0.00 73 1012.1
20260501213520 3 335 4.8 17.7 0.00 0.00 0.00 72 1012.0
20260501213046 3 283 4.8 17.7 0.00 0.00 0.00 72 1012.0
20260501212518 3 309 6.4 17.7 0.00 0.00 0.00 72 1011.9
20260501212019 3 171 4.8 17.7 0.00 0.00 0.00 71 1011.9
20260501211538 3 286 8.0 17.7 0.00 0.00 0.00 69 1012.0
20260501211018 4 208 6.4 14.5 0.00 0.00 0.00 71 1011.8
20260501210519 3 268 4.8 12.9 0.00 0.00 0.00 70 1011.9
20260501210042 3 220 8.0 12.9 0.00 0.00 0.00 75 1011.8
20260501205522 3 23 6.4 12.9 0.00 0.00 0.00 73 1011.9
20260501205017 3 22 6.4 12.9 0.00 0.00 0.00 73 1011.9
20260501204536 3 312 6.4 11.3 0.00 0.00 0.00 72 1011.9
20260501204020 3 305 4.8 14.5 0.00 0.00 0.00 74 1011.9
20260501203520 3 48 4.8 14.5 0.00 0.00 0.00 77 1011.9
20260501203033 3 271 4.8 12.9 0.00 0.00 0.00 80 1012.0
20260501202520 3 193 8.0 14.5 0.00 0.00 0.00 79 1011.9
20260501202019 3 6 6.4 14.5 0.00 0.00 0.00 82 1011.9
20260501201539 3 356 3.2 14.5 0.00 0.00 0.00 83 1011.9
20260501201022 3 48 4.8 14.5 0.00 0.00 0.00 83 1012.0
20260501200519 3 8 6.4 14.5 0.00 0.00 0.00 82 1011.9
20260501200038 3 32 6.4 14.5 0.00 0.00 0.00 80 1012.0
20260501195522 3 52 8.0 14.5 0.00 0.00 0.00 78 1011.9
20260501195019 4 143 4.8 14.5 0.00 0.00 0.00 75 1011.9
20260501194538 4 49 3.2 12.9 0.00 0.00 0.00 78 1011.9
20260501194019 4 91 3.2 14.5 0.00 0.00 0.00 81 1012.0
20260501193519 3 311 3.2 14.5 0.00 0.00 0.00 79 1011.9
20260501193034 3 24 8.0 14.5 0.00 0.00 0.00 80 1011.9
20260501192518 3 39 6.4 19.3 0.00 0.00 0.00 79 1012.0
20260501192019 3 18 8.0 19.3 0.00 0.00 0.00 79 1012.0
20260501191533 3 341 8.0 17.7 0.00 0.00 0.00 80 1012.0
20260501191020 3 12 9.7 14.5 0.00 0.00 0.00 78 1012.0
20260501190519 4 94 8.0 14.5 0.00 0.00 0.00 78 1011.9
20260501190039 4 170 6.4 14.5 0.00 0.00 0.00 79 1011.9
20260501185521 3 58 4.8 17.7 0.00 0.00 0.00 77 1011.8
20260501185019 3 359 8.0 17.7 0.00 0.00 0.00 79 1011.8
20260501184535 3 11 6.4 16.1 0.00 0.00 0.00 77 1011.7
20260501184023 3 51 8.0 16.1 0.00 0.00 0.00 79 1011.8
20260501183519 3 24 4.8 17.7 0.00 0.00 0.00 79 1011.8
20260501183035 3 340 9.7 17.7 0.00 0.00 0.00 79 1011.8
20260501182521 3 34 6.4 16.1 0.00 0.00 0.00 79 1011.8
20260501182019 3 15 8.0 16.1 0.00 0.00 0.00 78 1011.8
20260501181539 3 69 6.4 17.7 0.00 0.00 0.00 82 1011.8
20260501181019 2 79 4.8 19.3 0.00 0.00 0.00 82 1011.8
20260501180518 2 349 9.7 19.3 0.00 0.00 0.00 83 1011.8
20260501180046 2 319 9.7 12.9 0.00 0.00 0.00 85 1011.9
20260501175520 2 24 8.0 16.1 0.00 0.00 0.00 83 1011.8
20260501175019 2 344 9.7 19.3 0.00 0.00 0.00 80 1011.8
20260501174558 2 357 9.7 19.3 0.00 0.00 0.00 80 1011.7
20260501174023 2 27 11.3 17.7 0.00 0.00 0.00 78 1011.7
20260501173519 3 29 8.0 14.5 0.00 0.00 0.00 83 1011.7
20260501173040 2 30 8.0 16.1 0.00 0.00 0.00 82 1011.8
20260501172518 2 75 11.3 17.7 0.00 0.00 0.00 83 1011.8
20260501172019 2 77 6.4 17.7 0.00 0.00 0.00 85 1011.8
20260501171536 2 65 8.0 19.3 0.00 0.00 0.00 87 1011.9
20260501171018 1 21 11.3 19.3 0.00 0.00 0.00 84 1011.8
20260501170523 2 18 8.0 16.1 0.00 0.00 0.00 84 1011.8
20260501170044 2 26 6.4 19.3 0.00 0.00 0.00 86 1011.9
20260501165520 2 356 8.0 19.3 0.00 0.00 0.00 84 1011.8
20260501165020 2 26 8.0 16.1 0.00 0.00 0.00 83 1011.8
20260501164539 2 73 9.7 20.9 0.00 0.00 0.00 86 1011.7
20260501164021 2 6 8.0 20.9 0.00 0.00 0.00 85 1011.8
20260501163526 2 18 9.7 17.7 0.00 0.00 0.00 85 1011.7
20260501163037 2 26 9.7 17.7 0.00 0.00 0.00 86 1011.7
20260501162521 2 31 6.4 16.1 0.00 0.00 0.00 88 1011.8
20260501162019 2 31 9.7 19.3 0.00 0.00 0.00 87 1011.7
20260501161539 2 41 8.0 19.3 0.00 0.00 0.00 87 1011.7
20260501161018 2 34 4.8 17.7 0.00 0.00 0.00 89 1011.8
20260501160519 2 39 6.4 17.7 0.00 0.00 0.00 88 1011.7
20260501160036 1 68 6.4 17.7 0.00 0.00 0.00 87 1011.7